NETSAT-1

Last updated on Tue Oct 28 2025 00:03:54 GMT+0000 (Coordinated Universal Time)

1 46506U 20068W 25300.43867258 .00015541 00000+0 58171-3 0 9990 2 46506 97.8644 281.9843 0008720 98.5403 261.6823 15.27367658279682
UTC large
Height (km)
Speed (km/s)
/
Latitude / Longitude
Inclination (degrees)
Orbital Period (minutes)
Azimuth
Elevation
Range (km)
Doppler Factor

Next 0 passes for location: London (51.5072 / 0.1276)

Sorry there are no passes over London.